Regional Weather Roundup
Issued by NWS Green Bay, WI

Home | Current Version | Previous Version | Text Only | Print | Product List | Glossary On
Versions: 1 2 3 4 5 6 7 8 9 10 11 12 13 14 15 16 17 18 19 20 21 22 23 24 25 26 27 28 29 30 31 32 33 34 35 36 37 38 39 40 41 42 43 44 45 46 47 48 49 50
000
ASUS43 KGRB 081800
RWRGRB

NORTH-CENTRAL AND NORTHEAST WISCONSIN REGIONAL WEATHER ROUNDUP
NATIONAL WEATHER SERVICE GREEN BAY WI
1200 PM CST MON FEB 08 2016

WIZ005-009-010>012-018-019-081900-
NORTH CENTRAL WISCONSIN

CITY           SKY/WX    TMP DP  RH WIND       PRES   REMARKS
IRONWOOD       CLOUDY    16  12  86 NW13      29.75S WCI   2
MANITOWISH WTR NOT AVBL
ARBOR VITAE    NOT AVBL
EAGLE RIVER    NOT AVBL
LAND O LAKES   NOT AVBL
RHINELANDER    CLOUDY    22  15  75 NW10      29.67F
PHILLIPS       NOT AVBL
ANTIGO         NOT AVBL
TOMAHAWK       NOT AVBL
MERRILL        NOT AVBL
$$

WIZ013-073-081900-
NORTHEAST WISCONSIN

CITY           SKY/WX    TMP DP  RH WIND       PRES   REMARKS
IRON MOUNTAIN  LGT SNOW  22  15  75 NW17      29.65S VSB 3/4 WCI   8
MARINETTE      CLOUDY    30  25  80 N9        29.64R
$$

WIZ017-030-035>037-045-081900-
CENTRAL WISCONSIN

CITY           SKY/WX    TMP DP  RH WIND       PRES   REMARKS
MEDFORD        NOT AVBL
WAUSAU         CLOUDY    26  18  71 N9        29.67R
MOSINEE        CLOUDY    27  19  74 N14G20    29.69R
MARSHFIELD     CLOUDY    19  11  70 NW17      29.71R WCI   4
WISC RAPIDS    CLOUDY    22  13  68 NW12      29.72S
STEVENS POINT  NOT AVBL
WAUPACA        NOT AVBL
SHAWANO        NOT AVBL
CLINTONVILLE   NOT AVBL
WAUTOMA        NOT AVBL
$$

WIZ038-039-048-051-081900-
FOX VALLEY

CITY           SKY/WX    TMP DP  RH WIND       PRES   REMARKS
NWS GREEN BAY  LGT SNOW  32  26  78 NW10      29.63S
APPLETON       FLURRIES  27  21  80 W14       29.62F
OSHKOSH        CLOUDY    26  19  74 W13       29.65S
FOND DU LAC    MIX PCPN  26  19  74 NW13      29.66S
$$

WIZ022-050-052-081900-
EAST CENTRAL WISCONSIN

CITY           SKY/WX    TMP DP  RH WIND       PRES   REMARKS
EPHRAIM        NOT AVBL
STURGEON BAY   CLOUDY    32  27  80 N17       29.63F
MANITOWOC      NOT AVBL
SHEBOYGAN      LGT SNOW  27  21  78 NW13      29.63F
$$

LMZ563-521-522-541>543-081900-
LAKESHORE

STATION/POSITION TIME  TEMP    WIND        PRES    VSBY  WAVE
                       AIR SEA DIR/SP/G                  HT/PER
                 (UTC) (F)     (DEG/KT/KT) (MB)    (MI)  (FT/S)
SHEBOYGAN LKSHOR 1700   28     290/ 16/ 18 1004.4R
KEWAUNEE LKSHORE 1700   33     290/  6/ 12 1002.4R
ALGOMA MARINA    1711          340/  8/  9   N/A
NORTHPORT PIER   1700   31     340/ 14/ 17 1003.7R
CHAMBERS ISLAND  1700   31     360/ 13/ 18 1004.1R
MENOMINEE LKSHOR 1700   32     360/ 13     1002.6R
$$



USA.gov is the U.S. government's official web portal to all federal, state and local government web resources and services.